SL-3 R/B, 877

Orbit data source: Space-Track

SL-3 R/B, 877 is space debris in LEO originally from a launch on Fri, 28 Aug 1964 UTC launched from the Tyuratam Missile And Space Complex (TTMTR). Debris objects in space refer to the collection of defunct objects orbiting the Earth. Examples of debris include non-operational satellites, rocket bodies, and fragments generated from explosions, collisions, or faulty payload assembly.

Loading next visibility...
Identifier
877, 1964-053B
Orbit
LEO
Country
Flag of CISCIS
Related business
Manufacturer
Progress
Mission
Spacecraft
Bus & Motor
BLOK-E, Unknown motor
Mass
1,440 kg wet, 1,440 kg dry
Launch date (UTC)
1964-08-28 (62 years ago)
Launch vehicle
Unknown
Launch site
Tyuratam Missile And Space Complex (TTMTR)
Object type
Payload
Rocket body
Debris
Shape & HBR
Unknown
Radar Cross Section
Large (>1 m²)

Expand to show TLE details & history
Last TLE update: 7 hours ago

TLE from 7 hours ago
0 SL-3 R/B
1   877U 64053B   26122.13829383  .00000171  00000-0  57378-4 0  9993
2   877  65.0760 174.5304 0081223 275.4724  83.7115 14.61402855274609
Epoch: 2026-05-02T03:19Z
TLE epoch observation values (Epoch: 2026-05-02T03:19:08.586Z)
Latitude
-0.00006°
Longitude
-95.3159°
Altitude
684.827 km
Speed
7.518 km/s
True Right ascension
11h 38m 07s
True Declination
0° 00' 00"
Sunlit
Object was in full shadow at epoch
Visualization orbit readout
Latitude
Unknown
Longitude
Unknown
Altitude
Unknown
Speed
Unknown
Apparent Right ascension
Unknown
Apparent Declination
Unknown
Sunlit
N/A
Visualization observer readout
Local Sidereal Time
17:38:07
Azimuth
Unknown
Elevation
Unknown
Doppler factor
Unknown
Orbital elements
Apogee altitude
744.583 km
Perigee altitude
629.81 km
Semi-major axis
7,065.333 km
Eccentricity
0.00812
Inclination
65.076°
RAAN
174.5304°
Arg. of periapsis
275.4724°
True anomaly
84.63764°
Mean anomaly
83.7115°
Eccentric anomaly
84.17447°
Mean motion
3.65464 °/min
Orbital period
98.51 mins
BSTAR
0.000057378
Loading maneuver chart data...
Computing Atmospheric mass density...
Loading historical data...
Loading historical data...
Loading historical data...
Loading historical data...
Loading historical data...
Loading historical data...
Loading historical data...
Other satellites on launch #53 in the year 1964 (1964-08-28 UTC)

Documentation

Showing up to 5 results
|